Roanoke, VA

4:03 PM EDT on October 16, 2019 (GMT -0400)
Roanoke Regional-Woodrum

Weather History for KROA - August, 2019

Change the Weather History Date:

Thursday, August 29, 2019

  Actual Average Record
Temperature  
Mean Temperature 71 °F 74 °F  
Max Temperature 85 °F 84 °F 100 °F (1953)
Min Temperature 56 °F 63 °F 42 °F (1986)
Degree Days  
Heating Degree Days 0 0  
Month to date heating degree days 0 0  
Since 1 June heating degree days 0 11  
Since 1 July heating degree days 0 0  
Cooling Degree Days 6 9  
Month to date cooling degree days 362 305  
Year to date cooling degree days 1345 1028  
Since 1 June cooling degree days 1066 912  
Growing Degree Days 20 (Base 50)    
Moisture  
Dew Point 51 °F    
Average Humidity 58    
Maximum Humidity 86    
Minimum Humidity 29    
Precipitation  
Precipitation 0.00 in 0.12 in 1.17 in (1942)
Month to date precipitation 3.13 3.32  
Year to date precipitation 30.70 27.89  
Snow  
Snow 0.00 in - - ()
Month to date snowfall 0.0  
Since 1 June snowfall T  
Since 1 July snowfall T  
Snow Depth 0.00 in    
Sea Level Pressure  
Sea Level Pressure 30.04 in    
Wind  
Wind Speed 5 mph (NW)    
Max Wind Speed 14 mph    
Max Gust Speed 18 mph    
Visibility 10 miles    
Events      
T = Trace of Precipitation, MM = Missing Value Source: NWS Daily Summary

Daily Weather History Graph

Daily Weather History Graph

Search for Another Location

Airport or City:

Astronomy

Aug. 29, 2019 Rise Set
Actual Time 6:47 AM EDT 7:53 PM EDT
Civil Twilight 6:20 AM EDT 8:20 PM EDT
Nautical Twilight 5:48 AM EDT 8:52 PM EDT
Astronomical Twilight 5:15 AM EDT 9:25 PM EDT
Moon 5:33 AM EDT (8/29) 7:47 PM EDT (8/29)
Length of Visible Light 13h 59m
Length of Day
13h 05m
Waning Crescent, 1% of the Moon is Illuminated
Aug 29
Waning Crescent
Aug 30
New
Sep 5
First Quarter
Sep 14
Full
Sep 21
Last Quarter

Hourly Weather History & Observations

Time (EDT) Temp. Dew Point Humidity Pressure Visibility Wind Dir Wind Speed Gust Speed Precip Events Conditions
12:54 AM 72.0 °F 51.1 °F 48% 29.99 in 10.0 mi Calm Calm - N/A   Clear
1:54 AM 66.0 °F 53.1 °F 63% 29.99 in 10.0 mi North 3.5 mph - N/A   Clear
2:54 AM 61.0 °F 53.1 °F 75% 29.99 in 10.0 mi WNW 4.6 mph - N/A   Clear
3:54 AM 60.1 °F 53.1 °F 78% 29.99 in 10.0 mi West 3.5 mph - N/A   Clear
4:54 AM 59.0 °F 53.1 °F 81% 30.01 in 10.0 mi Calm Calm - N/A   Clear
5:54 AM 57.9 °F 53.1 °F 84% 30.03 in 10.0 mi West 3.5 mph - N/A   Clear
6:54 AM 57.9 °F 53.1 °F 84% 30.05 in 10.0 mi SSW 4.6 mph - N/A   Clear
7:54 AM 60.1 °F 53.1 °F 78% 30.06 in 10.0 mi SSW 3.5 mph - N/A   Clear
8:54 AM 68.0 °F 57.0 °F 68% 30.08 in 10.0 mi Calm Calm - N/A   Clear
10:54 AM 75.0 °F 52.0 °F 44% 30.10 in 10.0 mi NW 9.2 mph - N/A   Clear
11:54 AM 78.1 °F 52.0 °F 40% 30.10 in 10.0 mi NW 4.6 mph - N/A   Clear
12:54 PM 79.0 °F 48.9 °F 35% 30.08 in 10.0 mi NW 10.4 mph - N/A   Partly Cloudy
1:54 PM 81.0 °F 48.0 °F 31% 30.06 in 10.0 mi Variable 6.9 mph - N/A   Partly Cloudy
2:54 PM 82.0 °F 48.0 °F 30% 30.04 in 10.0 mi North 8.1 mph - N/A   Partly Cloudy
3:54 PM 84.0 °F 48.9 °F 29% 30.03 in 10.0 mi NNW 5.8 mph - N/A   Clear
4:54 PM 84.0 °F 48.0 °F 28% 30.02 in 10.0 mi NNW 6.9 mph - N/A   Clear
5:54 PM 82.9 °F 50.0 °F 32% 30.03 in 10.0 mi NW 11.5 mph - N/A   Clear
6:54 PM 80.1 °F 51.1 °F 36% 30.04 in 10.0 mi NW 10.4 mph - N/A   Clear
7:54 PM 75.0 °F 48.9 °F 40% 30.05 in 10.0 mi NNW 8.1 mph - N/A   Clear
8:54 PM 70.0 °F 51.1 °F 51% 30.05 in 10.0 mi NNW 5.8 mph - N/A   Clear
9:54 PM 69.1 °F 52.0 °F 54% 30.08 in 10.0 mi SW 3.5 mph - N/A   Clear
10:54 PM 66.9 °F 52.0 °F 59% 30.09 in 10.0 mi Calm Calm - N/A   Clear
11:54 PM 63.0 °F 53.1 °F 70% 30.09 in 10.0 mi Calm Calm - N/A   Clear